Regional Weather Roundup
Issued by NWS

Home | Current Version | Previous Version | Text Only | Print | Product List | Glossary On
Versions: 1 2 3 4 5 6 7 8 9 10 11 12 13 14 15 16 17 18 19 20 21 22 23 24 25 26 27 28 29 30 31 32 33 34 35 36 37 38 39 40 41 42 43 44 45 46 47 48 49 50
000
ASUS43 KDTX 030301
RWRMI
MICHIGAN HOURLY REGIONAL WEATHER ROUNDUP
NATIONAL WEATHER SERVICE DETROIT/PONTIAC MI
1100 PM EDT THU JUL 02 2015

NOTE: "FAIR" INDICATES FEW OR NO CLOUDS BELOW 12,000 FEET WITH NO
SIGNIFICANT WEATHER AND/OR OBSTRUCTION TO VISIBILITY.

MIZ047>049-052>055-059>063-066>070-074>076-081>083-030400-
SOUTHEAST LOWER MICHIGAN

CITY           SKY/WX    TMP DP  RH WIND       PRES   REMARKS
ADRIAN         CLEAR     63  57  81 SE6       30.01R
ALMA           CLEAR     56  52  85 NE3       30.03S
ANN ARBOR      CLEAR     55  53  93 CALM      30.00R
BAD AXE        CLEAR     49  43  81 CALM      30.04R
CARO           CLEAR     52  50  94 CALM      30.02S
DETROIT CITY   CLEAR     61  48  62 E5        30.01R
DETROIT        PTCLDY    64  48  56 CALM      30.01R
FLINT          CLEAR     62  48  60 NE5       30.02R
GROSSE ILE     CLEAR     63  52  67 NE5       30.00R
HILLSDALE      CLEAR     60  56  89 E3        30.01R
HOWELL         CLEAR     60  49  65 CALM      30.02R

CITY           SKY/WX    TMP DP  RH WIND       PRES   REMARKS
JACKSON        CLEAR     61  53  75 NE5       30.01R
LAMBERTVILLE   CLEAR     62  58  86 CALM      30.00S
LANSING        CLEAR     60  49  66 NE7       30.02R
LAPEER         FAIR      54  49  82 CALM      30.03R
MASON          CLEAR     58  51  78 NE3       30.01S
MONROE         CLEAR     62  52  71 NE3       30.00R
MT. CLEMENS    CLEAR     58  50  75 NE10      29.99S
PONTIAC        CLEAR     60  49  66 E5        30.01R
PORT HOPE        N/A     51  48  89 CALM      30.02R
PORT HURON     CLEAR     52  50  93 CALM      30.02S
TRI CITIES     CLEAR     59  48  67 N5        30.03S
MIDLAND        FAIR      52  47  83 CALM      30.02S
TROY           CLEAR     64  46  51 E8        30.03R
SAGINAW HB     CLEAR     55  45  67 CALM      30.02S
$$
MIZ043>046-050>051-056>058-064>065-071>073-077>080-030400-
SOUTHWEST LOWER MICHIGAN

CITY           SKY/WX    TMP DP  RH WIND       PRES   REMARKS
BATTLE CREEK   CLEAR     63  54  72 NE5       30.01R
BENTON HARBOR  PTCLDY    57  49  74 CALM      29.98S
BIG RAPIDS     CLEAR     57  50  77 CALM      30.01S
COLDWATER      CLEAR     61  53  73 NE3       29.99S
FREMONT        FAIR      60  52  75 CALM      30.01R
HOLLAND        CLEAR     59  53  80 CALM      30.01R
GRAND RAPIDS   CLEAR     61  51  70 E3        30.01R
IONIA          FAIR      59  49  68 E5        30.01S
KALAMAZOO      CLEAR     64  53  67 NE3       30.01R
LUDINGTON      CLEAR     58  48  69 CALM      30.01S
MARSHALL       CLEAR     62  53  72 CALM      30.00R
MOUNT PLEASANT CLEAR     57  51  79 CALM      30.02S
MUSKEGON       CLEAR     62  53  72 CALM      30.00R
SOUTH HAVEN    CLEAR     56  51  85 CALM      29.99S
$$
MIZ016>042-030400-
NORTHERN LOWER MICHIGAN

CITY           SKY/WX    TMP DP  RH WIND       PRES   REMARKS
ALPENA         CLEAR     53  45  74 CALM      30.03R
BEAVER ISLAND  CLEAR     52  45  77 CALM      30.01S
BELLAIRE       CLEAR     53  51  92 CALM      30.02S
CADILLAC       CLEAR     55  49  81 CALM      30.03S
CHARLEVOIX     CLEAR     55  48  79 CALM      30.05S
FRANKFORT      CLEAR     55  45  69 CALM      30.01S
GAYLORD        CLEAR     58  51  78 CALM      30.04R
GRAYLING       CLEAR     53  47  82 CALM      30.05R
HARBOR SPRINGS CLEAR     56  53  92 CALM      30.02S
HOUGHTON LAKE  CLEAR     53  48  83 E3        30.05R
MANISTEE       CLEAR     54  46  76 CALM      30.02S
OSCODA         CLEAR     49  43  81 CALM      30.03R
PELLSTON       CLEAR     53  51  93 CALM      30.02R
ROGERS CITY    CLEAR     57  48  72 CALM      30.03R
TRAVERSE CITY  CLEAR     57  48  72 CALM      30.00S
$$
MIZ007>008-015-030400-
EASTERN UPPER MICHIGAN

CITY           SKY/WX    TMP DP  RH WIND       PRES   REMARKS
KINROSS        CLEAR     61  48  63 SW5       30.00S
MACKINAC ISLAN CLEAR     59  53  79 SW6       30.01S
NEWBERRY       PTCLDY    57  47  69 SW6       29.99S
S. S. MARIE    CLEAR     58  46  64 SW3       29.99S
MUNISING         N/A     65  46  50 S9        29.97R
$$
MIZ004>006-011>014-085-030400-
CENTRAL UPPER MICHIGAN

CITY           SKY/WX    TMP DP  RH WIND       PRES   REMARKS
MANISTIQUE     CLEAR     57  44  62 SW5       29.99F
ESCANABA       CLEAR     63  54  72 S3        29.99S
MENOMINEE      CLEAR     57  48  72 CALM      30.00S
SAWYER-GWINN   PTCLDY    61  49  63 S9          N/A
$$
MIZ001>003-009>011-084-030400-
WESTERN UPPER MICHIGAN

CITY           SKY/WX    TMP DP  RH WIND       PRES   REMARKS
IRON MOUNTAIN  CLEAR     63  49  60 VRB3      29.99R
HOUGHTON       CLOUDY    66  56  70 SW3       29.93S
COPPER HARBOR    N/A     63  48  58 SW5       29.91S
IRONWOOD       CLEAR     66  55  68 SW7       29.94S
$$

ABBREVIATIONS USED IN REMARKS
   TC - TEMPERATURE IN CELSIUS
  WCI - WIND CHILL INDEX
   HX - HEAT INDEX
  VSB - VISIBILITY




USA.gov is the U.S. government's official web portal to all federal, state and local government web resources and services.